Time,TemperatureF,DewpointF,PressureIn,WindDirection,WindDirectionDegrees,WindSpeedMPH,WindSpeedGustMPH,Humidity,HourlyPrecipIn,Conditions,Clouds,dailyrainin,SoftwareType,DateUTC
2013-07-06 00:04:00,83.0,0.0,29.75,WNW,296,17.0,29.0,29,-99.99,,,-99.99,,2013-07-06 07:04:00,
2013-07-06 00:12:00,83.0,0.0,29.75,West,277,18.0,29.0,28,-99.99,,,-99.99,,2013-07-06 07:12:00,
2013-07-06 00:20:00,83.0,0.0,29.75,West,265,17.0,29.0,30,-99.99,,,-99.99,,2013-07-06 07:20:00,
2013-07-06 00:28:00,83.0,0.0,29.75,NW,304,16.0,26.0,29,-99.99,,,-99.99,,2013-07-06 07:28:00,
2013-07-06 00:36:00,82.0,0.0,29.75,West,280,16.0,28.0,31,-99.99,,,-99.99,,2013-07-06 07:36:00,
2013-07-06 00:44:00,82.0,0.0,29.75,SW,229,16.0,25.0,32,-99.99,,,-99.99,,2013-07-06 07:44:00,
2013-07-06 00:52:00,82.0,0.0,29.75,West,277,17.0,25.0,31,-99.99,,,-99.99,,2013-07-06 07:52:00,
2013-07-06 01:00:00,82.0,0.0,29.75,WNW,287,14.0,25.0,29,-99.99,,,-99.99,,2013-07-06 08:00:00,
2013-07-06 01:08:00,82.0,0.0,29.75,WNW,303,12.0,26.0,29,-99.99,,,-99.99,,2013-07-06 08:08:00,
2013-07-06 01:16:00,82.0,0.0,29.75,NW,308,21.0,26.0,32,-99.99,,,-99.99,,2013-07-06 08:16:00,
2013-07-06 01:24:00,81.0,0.0,29.75,WNW,290,23.0,30.0,33,-99.99,,,-99.99,,2013-07-06 08:24:00,
2013-07-06 01:32:00,81.0,0.0,29.75,WSW,252,24.0,30.0,32,-99.99,,,-99.99,,2013-07-06 08:32:00,
2013-07-06 01:40:00,81.0,0.0,29.75,WNW,285,14.0,30.0,31,-99.99,,,-99.99,,2013-07-06 08:40:00,
2013-07-06 01:48:00,80.0,0.0,29.75,SW,229,14.0,28.0,31,-99.99,,,-99.99,,2013-07-06 08:48:00,
2013-07-06 01:56:00,81.0,0.0,29.74,WNW,290,16.0,28.0,35,-99.99,,,-99.99,,2013-07-06 08:56:00,
2013-07-06 02:04:00,80.0,0.0,29.74,WNW,296,15.0,28.0,32,-99.99,,,-99.99,,2013-07-06 09:04:00,
2013-07-06 02:12:00,80.0,0.0,29.74,WNW,301,14.0,26.0,32,-99.99,,,-99.99,,2013-07-06 09:12:00,
2013-07-06 02:20:00,80.0,0.0,29.74,West,273,18.0,25.0,32,-99.99,,,-99.99,,2013-07-06 09:20:00,
2013-07-06 02:28:00,80.0,0.0,29.74,WNW,283,17.0,25.0,31,-99.99,,,-99.99,,2013-07-06 09:28:00,
2013-07-06 02:36:00,80.0,0.0,29.74,WNW,291,21.0,23.0,35,-99.99,,,-99.99,,2013-07-06 09:36:00,
2013-07-06 02:44:00,80.0,0.0,29.74,WNW,289,15.0,23.0,31,-99.99,,,-99.99,,2013-07-06 09:44:00,
2013-07-06 02:52:00,80.0,0.0,29.74,SSW,197,15.0,23.0,32,-99.99,,,-99.99,,2013-07-06 09:52:00,
2013-07-06 03:00:00,81.0,0.0,29.74,West,281,16.0,22.0,32,-99.99,,,-99.99,,2013-07-06 10:00:00,
2013-07-06 03:08:00,81.0,0.0,29.74,WNW,291,7.0,21.0,32,-99.99,,,-99.99,,2013-07-06 10:08:00,
2013-07-06 03:16:00,81.0,0.0,29.74,SW,222,14.0,21.0,30,-99.99,,,-99.99,,2013-07-06 10:16:00,
2013-07-06 03:24:00,81.0,0.0,29.74,West,270,14.0,22.0,31,-99.99,,,-99.99,,2013-07-06 10:24:00,
2013-07-06 03:32:00,80.0,0.0,29.74,WNW,300,6.0,21.0,29,-99.99,,,-99.99,,2013-07-06 10:32:00,
2013-07-06 03:40:00,80.0,0.0,29.74,WSW,257,15.0,23.0,29,-99.99,,,-99.99,,2013-07-06 10:40:00,
2013-07-06 03:48:00,80.0,0.0,29.74,WSW,255,10.0,23.0,29,-99.99,,,-99.99,,2013-07-06 10:48:00,
2013-07-06 03:56:00,80.0,0.0,29.74,WNW,296,5.0,21.0,31,-99.99,,,-99.99,,2013-07-06 10:56:00,
2013-07-06 04:04:00,80.0,0.0,29.74,WNW,284,8.0,21.0,30,-99.99,,,-99.99,,2013-07-06 11:04:00,
2013-07-06 04:12:00,79.0,0.0,29.74,WNW,296,12.0,20.0,32,-99.99,,,-99.99,,2013-07-06 11:12:00,
2013-07-06 04:20:00,79.0,0.0,29.73,West,264,10.0,17.0,31,-99.99,,,-99.99,,2013-07-06 11:20:00,
2013-07-06 04:28:00,79.0,0.0,29.73,WNW,294,12.0,18.0,29,-99.99,,,-99.99,,2013-07-06 11:28:00,
2013-07-06 04:36:00,80.0,0.0,29.74,WNW,284,14.0,20.0,26,-99.99,,,-99.99,,2013-07-06 11:36:00,
2013-07-06 04:44:00,80.0,0.0,29.74,WSW,244,14.0,20.0,28,-99.99,,,-99.99,,2013-07-06 11:44:00,
2013-07-06 04:52:00,80.0,0.0,29.74,NW,305,15.0,18.0,28,-99.99,,,-99.99,,2013-07-06 11:52:00,
2013-07-06 05:00:00,80.0,0.0,29.74,NW,305,9.0,17.0,24,-99.99,,,-99.99,,2013-07-06 12:00:00,
2013-07-06 05:08:00,80.0,0.0,29.74,WNW,298,13.0,18.0,28,-99.99,,,-99.99,,2013-07-06 12:08:00,
2013-07-06 05:16:00,80.0,0.0,29.74,NW,305,15.0,21.0,27,-99.99,,,-99.99,,2013-07-06 12:16:00,
2013-07-06 05:24:00,79.0,0.0,29.75,NW,306,14.0,21.0,30,-99.99,,,-99.99,,2013-07-06 12:24:00,
2013-07-06 05:32:00,79.0,0.0,29.75,NW,305,18.0,21.0,28,-99.99,,,-99.99,,2013-07-06 12:32:00,
2013-07-06 05:40:00,80.0,0.0,29.75,WNW,301,13.0,18.0,30,-99.99,,,-99.99,,2013-07-06 12:40:00,
2013-07-06 05:48:00,80.0,0.0,29.75,WSW,243,15.0,18.0,28,-99.99,,,-99.99,,2013-07-06 12:48:00,
2013-07-06 05:56:00,80.0,0.0,29.75,SSW,209,16.0,21.0,26,-99.99,,,-99.99,,2013-07-06 12:56:00,
2013-07-06 06:04:00,80.0,0.0,29.76,West,271,13.0,20.0,27,-99.99,,,-99.99,,2013-07-06 13:04:00,
2013-07-06 06:12:00,81.0,0.0,29.76,WNW,287,13.0,22.0,24,-99.99,,,-99.99,,2013-07-06 13:12:00,
2013-07-06 06:20:00,82.0,0.0,29.76,WNW,301,15.0,22.0,24,-99.99,,,-99.99,,2013-07-06 13:20:00,
2013-07-06 06:28:00,82.0,0.0,29.76,WNW,296,10.0,18.0,24,-99.99,,,-99.99,,2013-07-06 13:28:00,
2013-07-06 06:36:00,83.0,0.0,29.76,NW,305,10.0,18.0,23,-99.99,,,-99.99,,2013-07-06 13:36:00,
2013-07-06 06:44:00,84.0,0.0,29.76,WNW,294,12.0,17.0,21,-99.99,,,-99.99,,2013-07-06 13:44:00,
2013-07-06 06:52:00,84.0,0.0,29.76,WNW,291,13.0,18.0,22,-99.99,,,-99.99,,2013-07-06 13:52:00,
2013-07-06 07:00:00,83.0,0.0,29.76,WNW,291,14.0,17.0,23,-99.99,,,-99.99,,2013-07-06 14:00:00,
2013-07-06 07:08:00,83.0,0.0,29.76,West,274,7.0,18.0,20,-99.99,,,-99.99,,2013-07-06 14:08:00,
2013-07-06 07:16:00,84.0,0.0,29.77,WNW,302,9.0,21.0,22,-99.99,,,-99.99,,2013-07-06 14:16:00,
2013-07-06 07:24:00,84.0,0.0,29.77,WNW,299,6.0,18.0,23,-99.99,,,-99.99,,2013-07-06 14:24:00,
2013-07-06 07:32:00,84.0,0.0,29.77,West,259,16.0,23.0,24,-99.99,,,-99.99,,2013-07-06 14:32:00,
2013-07-06 07:40:00,86.0,0.0,29.77,West,264,15.0,21.0,20,-99.99,,,-99.99,,2013-07-06 14:40:00,
2013-07-06 07:48:00,85.0,0.0,29.78,WNW,298,9.0,21.0,24,-99.99,,,-99.99,,2013-07-06 14:48:00,
2013-07-06 07:56:00,87.0,0.0,29.78,WSW,251,12.0,18.0,21,-99.99,,,-99.99,,2013-07-06 14:56:00,
2013-07-06 08:04:00,86.0,0.0,29.78,WNW,292,14.0,21.0,20,-99.99,,,-99.99,,2013-07-06 15:04:00,
2013-07-06 08:12:00,86.0,0.0,29.78,NW,311,14.0,21.0,23,-99.99,,,-99.99,,2013-07-06 15:12:00,
2013-07-06 08:20:00,87.0,0.0,29.77,NW,307,14.0,23.0,20,-99.99,,,-99.99,,2013-07-06 15:20:00,
2013-07-06 08:28:00,88.0,0.0,29.78,WNW,285,12.0,23.0,20,-99.99,,,-99.99,,2013-07-06 15:28:00,
2013-07-06 08:36:00,88.0,0.0,29.78,West,274,21.0,23.0,22,-99.99,,,-99.99,,2013-07-06 15:36:00,
2013-07-06 08:44:00,88.0,0.0,29.78,NW,307,21.0,26.0,22,-99.99,,,-99.99,,2013-07-06 15:44:00,
2013-07-06 08:52:00,89.0,0.0,29.79,West,280,17.0,24.0,20,-99.99,,,-99.99,,2013-07-06 15:52:00,
2013-07-06 09:00:00,90.0,0.0,29.79,WNW,289,15.0,24.0,21,-99.99,,,-99.99,,2013-07-06 16:00:00,
2013-07-06 09:08:00,91.0,0.0,29.79,WNW,297,14.0,22.0,18,-99.99,,,-99.99,,2013-07-06 16:08:00,
2013-07-06 09:16:00,92.0,0.0,29.79,WNW,291,16.0,24.0,18,-99.99,,,-99.99,,2013-07-06 16:16:00,
2013-07-06 09:24:00,93.0,0.0,29.79,NW,307,14.0,21.0,18,-99.99,,,-99.99,,2013-07-06 16:24:00,
2013-07-06 09:33:00,94.0,0.0,29.78,WNW,292,5.0,20.0,21,-99.99,,,-99.99,,2013-07-06 16:33:00,
2013-07-06 09:40:00,94.0,0.0,29.78,WNW,300,12.0,21.0,18,-99.99,,,-99.99,,2013-07-06 16:40:00,
2013-07-06 09:48:00,95.0,0.0,29.78,WNW,291,10.0,18.0,19,-99.99,,,-99.99,,2013-07-06 16:48:00,
2013-07-06 09:56:00,95.0,0.0,29.78,WNW,296,12.0,20.0,16,-99.99,,,-99.99,,2013-07-06 16:56:00,
2013-07-06 10:04:00,94.0,0.0,29.79,WNW,296,7.0,15.0,19,-99.99,,,-99.99,,2013-07-06 17:04:00,
2013-07-06 10:09:00,95.0,0.0,29.79,WNW,298,9.0,14.0,16,-99.99,,,-99.99,,2013-07-06 17:09:00,
2013-07-06 10:16:00,97.0,0.0,29.78,WNW,290,13.0,16.0,16,-99.99,,,-99.99,,2013-07-06 17:16:00,
2013-07-06 10:21:00,97.0,0.0,29.78,WNW,302,20.0,21.0,15,-99.99,,,-99.99,,2013-07-06 17:21:00,
2013-07-06 10:28:00,97.0,0.0,29.78,NW,307,17.0,23.0,15,-99.99,,,-99.99,,2013-07-06 17:28:00,
2013-07-06 10:36:00,98.0,0.0,29.78,WSW,253,16.0,26.0,16,-99.99,,,-99.99,,2013-07-06 17:36:00,
2013-07-06 10:44:00,98.0,0.0,29.78,NW,306,14.0,22.0,17,-99.99,,,-99.99,,2013-07-06 17:44:00,
2013-07-06 10:52:00,98.0,0.0,29.78,NW,309,20.0,24.0,15,-99.99,,,-99.99,,2013-07-06 17:52:00,
2013-07-06 11:00:00,99.0,0.0,29.77,WNW,288,22.0,23.0,18,-99.99,,,-99.99,,2013-07-06 18:00:00,
2013-07-06 11:09:00,100.0,0.0,29.77,WNW,296,21.0,24.0,14,-99.99,,,-99.99,,2013-07-06 18:09:00,
2013-07-06 11:16:00,99.0,0.0,29.78,WNW,299,18.0,25.0,17,-99.99,,,-99.99,,2013-07-06 18:16:00,
2013-07-06 11:24:00,100.0,0.0,29.78,West,268,16.0,24.0,16,-99.99,,,-99.99,,2013-07-06 18:24:00,
2013-07-06 11:32:00,100.0,0.0,29.78,WNW,301,18.0,24.0,15,-99.99,,,-99.99,,2013-07-06 18:32:00,
2013-07-06 11:40:00,100.0,0.0,29.78,NW,309,6.0,24.0,14,-99.99,,,-99.99,,2013-07-06 18:40:00,
2013-07-06 11:48:00,100.0,0.0,29.78,NW,306,8.0,23.0,18,-99.99,,,-99.99,,2013-07-06 18:48:00,
2013-07-06 11:56:00,99.0,0.0,29.78,WNW,300,13.0,20.0,15,-99.99,,,-99.99,,2013-07-06 18:56:00,
2013-07-06 12:04:00,99.0,0.0,29.77,West,271,14.0,20.0,13,-99.99,,,-99.99,,2013-07-06 19:04:00,
2013-07-06 12:12:00,101.0,0.0,29.77,NW,307,16.0,24.0,13,-99.99,,,-99.99,,2013-07-06 19:12:00,
2013-07-06 12:20:00,101.0,0.0,29.77,WNW,285,12.0,24.0,14,-99.99,,,-99.99,,2013-07-06 19:20:00,
2013-07-06 12:29:00,102.0,0.0,29.77,WNW,297,14.0,22.0,14,-99.99,,,-99.99,,2013-07-06 19:29:00,
2013-07-06 12:36:00,102.0,0.0,29.77,WNW,296,14.0,22.0,13,-99.99,,,-99.99,,2013-07-06 19:36:00,
2013-07-06 12:44:00,103.0,0.0,29.76,NW,308,15.0,24.0,12,-99.99,,,-99.99,,2013-07-06 19:44:00,
2013-07-06 12:52:00,104.0,0.0,29.76,WNW,294,17.0,24.0,10,-99.99,,,-99.99,,2013-07-06 19:52:00,
2013-07-06 13:00:00,105.0,0.0,29.76,WNW,283,10.0,23.0,12,-99.99,,,-99.99,,2013-07-06 20:00:00,
2013-07-06 13:09:00,103.0,0.0,29.76,WNW,302,18.0,26.0,10,-99.99,,,-99.99,,2013-07-06 20:09:00,
2013-07-06 13:16:00,102.0,0.0,29.76,WNW,298,7.0,23.0,12,-99.99,,,-99.99,,2013-07-06 20:16:00,
2013-07-06 13:24:00,104.0,0.0,29.76,WNW,296,13.0,24.0,8,-99.99,,,-99.99,,2013-07-06 20:24:00,
2013-07-06 13:32:00,104.0,0.0,29.75,WNW,296,6.0,20.0,13,-99.99,,,-99.99,,2013-07-06 20:32:00,
2013-07-06 13:41:00,104.0,0.0,29.75,WNW,285,9.0,20.0,10,-99.99,,,-99.99,,2013-07-06 20:41:00,
2013-07-06 13:48:00,107.0,0.0,29.75,NW,309,16.0,22.0,8,-99.99,,,-99.99,,2013-07-06 20:48:00,
2013-07-06 13:56:00,106.0,0.0,29.75,NW,310,22.0,26.0,8,-99.99,,,-99.99,,2013-07-06 20:56:00,
2013-07-06 14:04:00,103.0,0.0,29.75,NW,313,6.0,23.0,13,-99.99,,,-99.99,,2013-07-06 21:04:00,
2013-07-06 14:12:00,102.0,0.0,29.75,NW,304,12.0,22.0,11,-99.99,,,-99.99,,2013-07-06 21:12:00,
2013-07-06 14:20:00,101.0,0.0,29.75,WNW,302,16.0,23.0,14,-99.99,,,-99.99,,2013-07-06 21:20:00,
2013-07-06 14:28:00,100.0,0.0,29.75,West,275,8.0,21.0,12,-99.99,,,-99.99,,2013-07-06 21:28:00,
2013-07-06 14:36:00,101.0,0.0,29.74,NW,305,15.0,22.0,10,-99.99,,,-99.99,,2013-07-06 21:36:00,
2013-07-06 14:44:00,102.0,0.0,29.74,WNW,298,13.0,20.0,11,-99.99,,,-99.99,,2013-07-06 21:44:00,
2013-07-06 14:52:00,103.0,0.0,29.73,WNW,300,6.0,21.0,12,-99.99,,,-99.99,,2013-07-06 21:52:00,
2013-07-06 15:00:00,102.0,0.0,29.73,WNW,297,12.0,24.0,10,-99.99,,,-99.99,,2013-07-06 22:00:00,
2013-07-06 15:08:00,101.0,0.0,29.72,WNW,296,8.0,24.0,11,-99.99,,,-99.99,,2013-07-06 22:08:00,
2013-07-06 15:16:00,101.0,0.0,29.72,WNW,296,13.0,21.0,13,-99.99,,,-99.99,,2013-07-06 22:16:00,
2013-07-06 15:21:00,101.0,0.0,29.72,WNW,298,12.0,18.0,11,-99.99,,,-99.99,,2013-07-06 22:21:00,
2013-07-06 15:28:00,101.0,0.0,29.72,West,268,18.0,22.0,13,-99.99,,,-99.99,,2013-07-06 22:28:00,
2013-07-06 15:33:00,101.0,0.0,29.72,WNW,297,17.0,22.0,11,-99.99,,,-99.99,,2013-07-06 22:33:00,
2013-07-06 15:40:00,100.0,0.0,29.72,WNW,292,13.0,23.0,11,-99.99,,,-99.99,,2013-07-06 22:40:00,
2013-07-06 15:48:00,101.0,0.0,29.71,WNW,297,14.0,25.0,13,-99.99,,,-99.99,,2013-07-06 22:48:00,
2013-07-06 15:56:00,102.0,0.0,29.71,WNW,296,14.0,24.0,10,-99.99,,,-99.99,,2013-07-06 22:56:00,
2013-07-06 16:02:00,101.0,0.0,29.71,WNW,296,20.0,23.0,11,-99.99,,,-99.99,,2013-07-06 23:02:00,
2013-07-06 16:08:00,101.0,0.0,29.70,WNW,290,17.0,23.0,11,-99.99,,,-99.99,,2013-07-06 23:08:00,
2013-07-06 16:16:00,102.0,0.0,29.70,WNW,300,16.0,25.0,12,-99.99,,,-99.99,,2013-07-06 23:16:00,
2013-07-06 16:24:00,102.0,0.0,29.70,WNW,297,15.0,25.0,10,-99.99,,,-99.99,,2013-07-06 23:24:00,
2013-07-06 16:32:00,102.0,0.0,29.70,WNW,292,16.0,22.0,14,-99.99,,,-99.99,,2013-07-06 23:32:00,
2013-07-06 16:40:00,102.0,0.0,29.70,WNW,295,17.0,29.0,12,-99.99,,,-99.99,,2013-07-06 23:40:00,
2013-07-06 16:48:00,102.0,0.0,29.69,WNW,300,17.0,26.0,10,-99.99,,,-99.99,,2013-07-06 23:48:00,
2013-07-06 16:56:00,102.0,0.0,29.69,WNW,292,20.0,26.0,10,-99.99,,,-99.99,,2013-07-06 23:56:00,
2013-07-06 17:04:00,102.0,0.0,29.69,WNW,289,18.0,30.0,11,-99.99,,,-99.99,,2013-07-07 00:04:00,
2013-07-06 17:13:00,101.0,0.0,29.69,West,276,15.0,28.0,11,-99.99,,,-99.99,,2013-07-07 00:13:00,
2013-07-06 17:20:00,101.0,0.0,29.69,West,259,17.0,28.0,10,-99.99,,,-99.99,,2013-07-07 00:20:00,
2013-07-06 17:28:00,102.0,0.0,29.69,WNW,290,17.0,26.0,12,-99.99,,,-99.99,,2013-07-07 00:28:00,
2013-07-06 17:36:00,102.0,0.0,29.69,NW,304,18.0,29.0,12,-99.99,,,-99.99,,2013-07-07 00:36:00,
2013-07-06 17:45:00,102.0,0.0,29.69,WNW,299,5.0,31.0,9,-99.99,,,-99.99,,2013-07-07 00:45:00,
2013-07-06 17:52:00,102.0,0.0,29.69,WNW,300,20.0,26.0,9,-99.99,,,-99.99,,2013-07-07 00:52:00,
2013-07-06 18:00:00,100.0,0.0,29.69,NW,304,9.0,25.0,12,-99.99,,,-99.99,,2013-07-07 01:00:00,
2013-07-06 18:08:00,100.0,0.0,29.69,WNW,298,18.0,24.0,14,-99.99,,,-99.99,,2013-07-07 01:08:00,
2013-07-06 18:16:00,100.0,0.0,29.69,WNW,294,8.0,26.0,10,-99.99,,,-99.99,,2013-07-07 01:16:00,
2013-07-06 18:24:00,100.0,0.0,29.69,WNW,303,15.0,25.0,10,-99.99,,,-99.99,,2013-07-07 01:24:00,
2013-07-06 18:32:00,100.0,0.0,29.69,WNW,303,20.0,25.0,10,-99.99,,,-99.99,,2013-07-07 01:32:00,
2013-07-06 18:40:00,100.0,0.0,29.69,WNW,285,13.0,26.0,9,-99.99,,,-99.99,,2013-07-07 01:40:00,
2013-07-06 18:48:00,100.0,0.0,29.69,NW,309,22.0,28.0,12,-99.99,,,-99.99,,2013-07-07 01:48:00,
2013-07-06 18:56:00,99.0,0.0,29.69,WNW,299,17.0,28.0,10,-99.99,,,-99.99,,2013-07-07 01:56:00,
2013-07-06 19:01:00,99.0,0.0,29.69,WNW,302,23.0,28.0,10,-99.99,,,-99.99,,2013-07-07 02:01:00,
2013-07-06 19:08:00,99.0,0.0,29.70,NW,304,18.0,28.0,12,-99.99,,,-99.99,,2013-07-07 02:08:00,
2013-07-06 19:16:00,99.0,0.0,29.70,NW,304,21.0,25.0,12,-99.99,,,-99.99,,2013-07-07 02:16:00,
2013-07-06 19:24:00,98.0,0.0,29.70,WNW,302,18.0,24.0,12,-99.99,,,-99.99,,2013-07-07 02:24:00,
2013-07-06 19:32:00,98.0,0.0,29.70,WNW,298,13.0,25.0,11,-99.99,,,-99.99,,2013-07-07 02:32:00,
2013-07-06 19:40:00,98.0,0.0,29.70,West,279,13.0,22.0,11,-99.99,,,-99.99,,2013-07-07 02:40:00,
2013-07-06 19:48:00,97.0,0.0,29.71,WNW,300,16.0,23.0,13,-99.99,,,-99.99,,2013-07-07 02:48:00,
2013-07-06 19:56:00,96.0,0.0,29.70,West,281,23.0,24.0,16,-99.99,,,-99.99,,2013-07-07 02:56:00,
2013-07-06 20:04:00,96.0,0.0,29.71,WNW,297,17.0,25.0,16,-99.99,,,-99.99,,2013-07-07 03:04:00,
2013-07-06 20:12:00,95.0,0.0,29.71,WNW,299,14.0,24.0,19,-99.99,,,-99.99,,2013-07-07 03:12:00,
2013-07-06 20:20:00,94.0,0.0,29.71,NW,304,22.0,24.0,18,-99.99,,,-99.99,,2013-07-07 03:20:00,
2013-07-06 20:28:00,94.0,0.0,29.72,WNW,302,18.0,25.0,17,-99.99,,,-99.99,,2013-07-07 03:28:00,
2013-07-06 20:36:00,93.0,0.0,29.72,WNW,301,22.0,29.0,22,-99.99,,,-99.99,,2013-07-07 03:36:00,
2013-07-06 20:44:00,92.0,0.0,29.72,NW,307,22.0,29.0,22,-99.99,,,-99.99,,2013-07-07 03:44:00,
2013-07-06 20:53:00,91.0,0.0,29.73,West,278,21.0,28.0,22,-99.99,,,-99.99,,2013-07-07 03:53:00,
2013-07-06 21:00:00,91.0,0.0,29.73,West,279,15.0,28.0,20,-99.99,,,-99.99,,2013-07-07 04:00:00,
2013-07-06 21:04:00,91.0,0.0,29.74,WNW,303,20.0,28.0,20,-99.99,,,-99.99,,2013-07-07 04:04:00,
2013-07-06 21:08:00,90.0,0.0,29.74,WNW,290,17.0,28.0,23,-99.99,,,-99.99,,2013-07-07 04:08:00,
2013-07-06 21:16:00,90.0,0.0,29.74,West,269,16.0,28.0,21,-99.99,,,-99.99,,2013-07-07 04:16:00,
2013-07-06 21:24:00,89.0,0.0,29.74,WNW,291,16.0,25.0,23,-99.99,,,-99.99,,2013-07-07 04:24:00,
2013-07-06 21:32:00,89.0,0.0,29.75,NW,306,12.0,22.0,24,-99.99,,,-99.99,,2013-07-07 04:32:00,
2013-07-06 21:40:00,89.0,0.0,29.75,WNW,297,10.0,25.0,23,-99.99,,,-99.99,,2013-07-07 04:40:00,
2013-07-06 21:48:00,88.0,0.0,29.75,WNW,299,16.0,23.0,24,-99.99,,,-99.99,,2013-07-07 04:48:00,
2013-07-06 21:56:00,88.0,0.0,29.75,WNW,296,14.0,23.0,23,-99.99,,,-99.99,,2013-07-07 04:56:00,
2013-07-06 22:04:00,87.0,0.0,29.76,WNW,299,14.0,21.0,24,-99.99,,,-99.99,,2013-07-07 05:04:00,
2013-07-06 22:12:00,87.0,0.0,29.76,WNW,299,17.0,22.0,24,-99.99,,,-99.99,,2013-07-07 05:12:00,
2013-07-06 22:20:00,87.0,0.0,29.76,WNW,289,20.0,22.0,26,-99.99,,,-99.99,,2013-07-07 05:20:00,
2013-07-06 22:28:00,87.0,0.0,29.76,WNW,290,8.0,22.0,24,-99.99,,,-99.99,,2013-07-07 05:28:00,
2013-07-06 22:36:00,86.0,0.0,29.76,West,278,21.0,22.0,25,-99.99,,,-99.99,,2013-07-07 05:36:00,
2013-07-06 22:44:00,86.0,0.0,29.75,WNW,301,20.0,23.0,26,-99.99,,,-99.99,,2013-07-07 05:44:00,
2013-07-06 22:52:00,86.0,0.0,29.76,WNW,303,15.0,23.0,23,-99.99,,,-99.99,,2013-07-07 05:52:00,
2013-07-06 23:00:00,86.0,0.0,29.76,WNW,293,8.0,24.0,25,-99.99,,,-99.99,,2013-07-07 06:00:00,
2013-07-06 23:08:00,86.0,0.0,29.76,WNW,283,15.0,21.0,23,-99.99,,,-99.99,,2013-07-07 06:08:00,
2013-07-06 23:16:00,86.0,0.0,29.77,WNW,298,14.0,18.0,23,-99.99,,,-99.99,,2013-07-07 06:16:00,
2013-07-06 23:24:00,86.0,0.0,29.77,West,281,13.0,20.0,22,-99.99,,,-99.99,,2013-07-07 06:24:00,
2013-07-06 23:32:00,86.0,0.0,29.77,WNW,284,9.0,18.0,26,-99.99,,,-99.99,,2013-07-07 06:32:00,
2013-07-06 23:40:00,85.0,0.0,29.77,WNW,301,8.0,20.0,26,-99.99,,,-99.99,,2013-07-07 06:40:00,
2013-07-06 23:48:00,85.0,0.0,29.77,WNW,300,14.0,21.0,23,-99.99,,,-99.99,,2013-07-07 06:48:00,
2013-07-06 23:56:00,85.0,0.0,29.77,WNW,297,10.0,21.0,25,-99.99,,,-99.99,,2013-07-07 06:56:00,